Wind_Speed
19 20 20 21 21 21 21 21 22 21 21 22 24 25 25 24 23 24 24 24 24 24 25 25 25 25 25 24 24 24 24 24 24 24 24 24 24 24 23 23 23 23 22 22
21 21 22 22 22 22 21 21 22 23 23 23 24 26 26 25 25 24 24 24 24 25 25 26 26 25 25 25 25 25 25 25 25 25 25 25 24 24 24 24 23 22 23 23
22 22 24 23 22 22 22 22 23 24 25 25 25 25 26 26 26 26 25 24 24 24 25 25 25 25 25 25 25 26 26 26 26 26 26 26 25 25 25 24 23 24 24 24
23 24 26 24 23 23 23 23 24 25 26 26 25 25 25 26 27 26 25 25 24 25 25 25 26 26 27 27 27 27 27 27 27 27 27 26 26 25 25 25 25 25 25 26
24 25 26 25 24 24 24 24 24 25 25 25 25 26 26 26 26 26 26 25 25 26 27 27 28 28 28 27 27 27 27 27 27 28 27 27 26 26 26 26 26 26 26 27
25 26 27 26 25 25 25 26 25 25 25 25 25 26 26 27 27 27 27 27 27 28 28 28 29 28 28 28 28 28 28 28 29 28 28 27 27 27 27 28 27 27 27 27
26 27 27 26 26 26 26 27 26 26 26 26 26 26 27 27 28 28 28 28 28 29 29 29 29 29 29 29 29 29 30 30 30 29 28 28 28 28 28 28 28 28 27 28
27 29 28 27 27 27 28 29 29 29 28 28 28 28 28 29 29 29 29 29 29 29 29 29 30 30 31 31 30 30 31 31 30 30 29 29 29 29 30 30 29 29 28 28
28 29 29 29 29 29 30 30 30 30 30 30 30 29 30 30 30 31 31 30 30 30 30 30 30 31 32 32 31 31 31 31 30 30 30 30 30 30 30 30 30 29 29 28
31 30 30 30 31 30 30 31 32 32 31 31 32 31 31 32 31 31 32 31 31 31 31 31 31 31 32 32 32 32 31 31 30 30 30 30 31 31 31 31 30 30 29 29
32 31 32 32 32 31 31 32 33 33 32 32 32 32 32 32 32 32 32 32 32 32 32 32 32 32 32 32 32 31 31 31 30 30 30 30 31 31 31 31 31 31 30 29
32 32 33 33 32 32 32 32 33 33 33 33 32 33 33 33 32 32 32 32 32 33 32 32 33 33 33 33 32 31 31 30 30 30 31 31 31 31 31 31 30 30 30 30
33 33 33 34 33 33 33 33 33 33 33 33 33 32 32 33 33 32 32 32 32 33 33 33 33 33 33 33 32 31 31 30 30 31 31 32 32 31 31 30 30 30 31 31
34 33 34 34 34 34 34 34 34 34 34 33 33 33 33 33 32 32 32 31 32 33 33 33 33 33 33 32 31 31 31 31 31 31 31 32 31 31 31 30 30 30 30 30
34 33 34 34 34 35 34 34 34 34 33 33 33 33 33 32 32 31 32 32 32 32 33 33 33 33 32 32 31 31 31 31 31 31 31 31 31 30 30 30 29 29 30 31
34 33 34 34 34 34 34 34 34 33 33 33 33 32 32 32 31 31 32 32 32 32 32 33 33 32 31 31 31 31 31 31 31 30 30 30 30 30 30 29 29 29 29 30
34 34 34 34 34 34 34 33 33 32 32 32 32 32 32 32 32 32 32 32 32 32 32 31 31 30 29 29 29 29 30 30 30 30 30 30 30 30 30 30 29 30 29 30
34 34 34 34 34 34 33 33 32 31 31 31 31 32 32 32 31 31 31 31 32 31 30 29 29 28 27 27 28 29 29 30 30 30 29 30 30 30 30 30 30 30 30 30
32 32 32 32 32 32 32 32 31 31 31 30 30 31 31 31 30 30 30 31 31 30 29 28 28 27 26 26 27 27 28 28 29 29 29 30 30 30 30 30 31 30 30 30
30 30 30 30 30 30 30 30 30 29 29 29 29 29 29 29 30 30 30 30 29 28 27 27 26 26 26 26 26 26 27 27 28 28 29 30 29 29 30 30 30 29 29 29
29 29 29 28 28 27 28 27 27 27 27 28 28 28 29 29 29 29 29 28 28 27 26 26 26 25 25 26 26 26 27 27 27 27 28 28 28 29 29 29 29 29 29 29
28 28 27 27 26 26 26 26 26 26 26 27 27 28 28 28 28 28 27 27 27 26 26 26 25 25 24 25 25 26 27 27 27 28 27 27 27 27 28 28 28 28 28 28
27 26 26 27 26 26 26 26 26 25 26 27 27 27 27 28 28 28 27 27 26 26 26 26 26 25 25 25 26 26 26 27 28 27 27 26 26 27 27 27 27 27 27 27
25 25 25 25 26 26 25 25 25 25 26 27 27 27 27 27 28 27 27 27 27 27 27 27 26 26 25 26 26 27 27 27 26 26 26 26 26 26 27 27 27 27 27 27
24 24 24 24 24 24 24 24 25 25 26 26 26 26 27 27 27 27 27 27 27 27 27 27 26 26 26 26 26 27 27 27 27 27 26 26 26 26 26 26 27 27 27 27
24 24 25 24 24 25 26 26 26 26 26 26 27 27 27 26 26 26 26 26 26 26 26 26 26 26 25 26 26 26 26 26 26 27 27 26 26 27 27 27 27 27 26 26
24 25 25 25 25 25 26 26 26 26 27 27 27 27 26 26 25 25 25 25 25 25 25 25 25 25 25 26 26 26 25 25 25 26 26 26 27 27 27 27 27 26 26 25
Wind_Direction
262 262 264 268 271 270 270 270 271 272 273 275 278 283 287 289 289 290 290 289 288 287 286 286 286 285 287 288 288 288 289 291 292 294 294 293 292 290 289 288 288 287 284 283
263 265 266 266 269 271 274 271 272 273 274 277 280 282 286 288 288 289 288 287 288 288 287 286 286 285 286 287 288 289 289 290 290 292 293 292 291 289 289 289 288 286 284 284
265 267 268 268 271 271 273 273 274 275 277 278 280 282 283 285 287 288 288 288 288 287 287 285 284 284 285 285 286 287 289 290 290 291 292 291 291 289 288 287 287 284 282 283
267 268 270 274 273 272 273 276 277 277 279 280 281 282 282 284 286 287 287 287 286 286 285 285 284 285 285 286 286 287 287 288 290 290 290 289 288 288 287 286 285 284 283 281
267 269 273 274 274 274 275 276 277 278 280 281 281 282 283 284 283 284 285 285 285 285 285 284 284 284 284 285 285 286 287 288 288 289 288 287 285 286 286 285 285 285 284 282
268 269 272 274 274 275 276 277 279 280 281 283 283 282 284 285 285 284 284 284 285 285 284 283 284 284 284 284 284 285 286 287 287 287 287 285 284 284 284 284 284 284 284 284
267 268 271 274 276 277 276 278 281 281 283 285 286 286 286 286 286 285 285 285 285 285 284 283 283 283 284 284 284 284 284 285 286 286 285 284 284 284 284 285 284 284 284 284
266 267 270 274 275 276 277 279 281 282 284 285 287 287 286 286 286 285 284 285 285 286 286 285 284 284 284 285 285 285 284 284 284 284 285 283 282 283 284 286 286 285 284 283
268 269 271 272 274 276 277 279 280 283 284 285 287 288 287 287 286 286 286 286 286 286 286 286 286 285 285 285 285 286 285 284 284 283 284 284 283 283 284 285 285 285 284 284
266 267 269 271 274 275 276 277 279 281 283 285 286 287 287 288 287 287 287 286 285 285 285 285 286 286 286 285 285 285 285 283 283 282 284 284 284 283 283 283 284 285 285 284
266 267 269 271 273 275 276 277 279 281 283 284 285 285 287 287 287 287 287 286 285 285 285 284 284 286 286 286 286 285 284 283 282 282 283 284 284 284 284 283 283 283 284 283
267 266 268 270 271 272 275 278 281 283 283 284 285 286 286 286 287 287 287 286 286 286 286 285 285 286 286 285 284 284 283 283 282 282 283 284 284 284 284 284 283 282 283 284
267 266 266 268 270 272 274 277 280 281 282 284 285 285 284 285 286 286 287 287 286 286 286 286 286 286 286 285 283 282 282 282 282 283 284 285 284 283 283 283 282 283 285 284
268 268 268 269 270 272 274 276 278 280 282 284 284 284 284 285 285 286 286 287 287 286 286 286 287 287 287 285 283 282 282 283 284 284 285 285 285 284 283 283 282 283 284 284
268 268 268 269 271 273 275 276 278 280 281 282 283 283 283 284 284 284 286 287 289 289 288 287 288 288 287 285 283 283 283 283 284 285 285 285 286 285 284 284 283 284 284 285
268 268 268 270 272 273 275 277 278 280 280 281 282 282 282 282 283 285 287 288 290 292 291 290 289 289 287 285 284 283 283 284 284 285 285 285 286 286 286 284 284 285 285 285
268 269 270 271 273 273 274 276 278 280 280 281 281 281 282 282 283 285 287 289 290 292 292 291 289 288 288 287 285 284 284 284 284 285 286 286 287 288 285 284 284 285 285 285
270 270 271 272 272 272 273 275 277 278 279 280 280 281 282 283 284 285 287 289 291 292 292 290 289 289 288 287 286 285 285 286 285 285 286 286 287 287 286 285 284 284 285 286
271 272 272 272 273 273 272 274 276 277 278 279 280 281 283 283 284 286 287 288 290 292 292 291 290 288 288 288 288 287 287 287 287 285 286 287 288 288 288 287 285 284 283 284
273 273 272 272 272 273 274 274 274 275 277 278 279 281 283 284 285 287 287 288 289 290 290 291 290 289 287 288 288 288 289 289 287 286 286 287 287 287 288 288 286 284 283 284
274 273 272 272 272 272 273 274 274 276 277 278 280 282 284 286 287 288 288 286 287 288 289 290 290 288 286 287 288 287 288 291 291 290 289 289 288 289 289 289 288 286 285 285
274 273 271 269 268 270 272 273 274 276 277 279 281 282 284 286 286 287 287 287 288 287 287 289 290 289 287 287 287 287 289 290 292 292 290 289 290 291 290 290 289 287 287 286
273 272 270 267 267 268 270 272 274 277 278 279 280 281 284 286 286 285 286 286 286 286 286 288 289 288 287 286 287 287 289 291 292 292 290 290 291 291 291 291 290 290 289 287
271 271 272 271 269 270 272 274 275 276 278 279 280 281 283 286 286 286 286 285 285 286 287 287 287 287 287 288 288 288 288 291 292 292 291 291 291 291 292 291 290 290 290 289
271 271 272 272 272 271 272 274 275 277 279 280 281 282 283 285 286 286 286 285 285 286 287 288 288 287 287 288 289 290 289 289 290 291 291 291 292 292 292 293 292 292 291 289
271 273 273 273 272 272 273 275 276 277 278 279 281 283 284 285 286 286 286 287 288 288 288 288 288 287 288 289 290 291 291 290 289 289 290 290 291 292 292 293 293 293 292 291
270 272 273 274 274 274 274 275 277 278 278 280 282 283 283 283 284 284 286 287 288 290 291 291 291 289 289 290 291 292 293 292 291 291 292 291 292 292 293 293 293 292 291 289
Height
5789 5789 5789 5789 5789 5789 5789 5789 5789 5789 5788 5787 5786 5784 5783 5782 5781 5780 5779 5778 5776 5775 5774 5773 5772 5771 5770 5769 5767 5766 5765 5764 5762 5761 5759 5758 5757 5756 5754 5753 5752 5751 5751 5750
5783 5783 5783 5783 5784 5784 5783 5783 5783 5782 5782 5781 5780 5779 5777 5776 5775 5774 5773 5772 5770 5769 5768 5766 5765 5765 5763 5762 5761 5760 5759 5758 5756 5755 5753 5752 5751 5749 5748 5747 5746 5745 5745 5744
5777 5778 5777 5778 5779 5778 5778 5777 5777 5776 5777 5775 5774 5773 5772 5770 5769 5768 5767 5766 5764 5763 5761 5760 5759 5758 5757 5756 5755 5753 5752 5751 5750 5748 5747 5745 5744 5743 5741 5740 5739 5739 5738 5738
5771 5772 5770 5774 5772 5772 5772 5771 5770 5770 5769 5768 5768 5766 5765 5764 5762 5761 5760 5759 5758 5756 5755 5754 5752 5751 5750 5749 5748 5747 5745 5744 5742 5741 5740 5738 5737 5736 5735 5734 5733 5732 5731 5730
5764 5764 5764 5766 5766 5766 5765 5765 5764 5763 5762 5762 5761 5760 5758 5757 5756 5755 5754 5752 5751 5750 5748 5747 5746 5745 5743 5742 5740 5739 5738 5737 5735 5734 5732 5731 5730 5729 5727 5727 5726 5724 5723 5723
5758 5757 5757 5760 5759 5759 5759 5758 5758 5757 5756 5755 5754 5753 5752 5750 5749 5747 5746 5745 5744 5743 5741 5740 5738 5737 5736 5734 5733 5731 5730 5729 5727 5726 5725 5723 5722 5721 5720 5719 5718 5717 5715 5714
5751 5750 5750 5752 5752 5752 5753 5752 5750 5749 5749 5748 5747 5746 5745 5743 5741 5740 5739 5737 5736 5735 5734 5732 5731 5729 5728 5726 5725 5723 5722 5720 5719 5718 5717 5715 5714 5713 5712 5711 5710 5708 5707 5707
5744 5743 5746 5745 5744 5745 5744 5743 5742 5742 5741 5740 5739 5738 5737 5735 5734 5732 5731 5730 5728 5727 5726 5724 5722 5721 5719 5718 5716 5715 5713 5712 5710 5709 5708 5707 5706 5705 5704 5703 5701 5700 5699 5698
5737 5738 5737 5737 5736 5736 5735 5735 5734 5734 5733 5732 5731 5730 5728 5727 5725 5724 5723 5721 5720 5718 5717 5716 5714 5712 5711 5709 5708 5706 5704 5703 5702 5701 5700 5698 5697 5696 5695 5694 5693 5692 5691 5690
5728 5729 5728 5727 5727 5727 5727 5726 5725 5725 5725 5724 5723 5721 5720 5718 5717 5716 5714 5713 5711 5710 5708 5707 5705 5704 5702 5700 5699 5697 5696 5694 5693 5692 5691 5690 5688 5687 5686 5685 5684 5683 5682 5681
5719 5720 5719 5719 5719 5719 5719 5718 5717 5716 5716 5715 5714 5712 5711 5710 5708 5707 5705 5704 5702 5701 5700 5698 5696 5695 5693 5691 5689 5688 5687 5686 5685 5683 5682 5681 5679 5678 5677 5676 5674 5674 5673 5671
5710 5711 5710 5710 5710 5710 5710 5709 5708 5707 5706 5706 5704 5703 5702 5701 5699 5698 5696 5695 5693 5692 5690 5689 5687 5685 5683 5682 5680 5679 5678 5677 5675 5674 5673 5672 5670 5669 5667 5666 5665 5664 5662 5661
5700 5700 5700 5700 5700 5700 5700 5700 5699 5698 5697 5696 5695 5694 5693 5691 5690 5689 5687 5685 5684 5682 5681 5679 5677 5675 5674 5672 5671 5669 5668 5667 5666 5665 5663 5662 5660 5659 5658 5657 5655 5654 5652 5651
5690 5690 5690 5691 5691 5691 5690 5690 5689 5688 5687 5686 5685 5684 5683 5682 5680 5679 5678 5676 5674 5672 5671 5669 5667 5666 5664 5662 5661 5660 5658 5657 5656 5655 5654 5652 5651 5649 5648 5647 5646 5644 5643 5641
5680 5680 5680 5681 5681 5680 5680 5680 5679 5679 5678 5677 5675 5674 5673 5672 5671 5669 5668 5666 5664 5662 5661 5659 5657 5656 5654 5652 5651 5650 5649 5648 5647 5645 5644 5642 5641 5640 5638 5637 5636 5635 5633 5632
5670 5670 5670 5671 5671 5670 5670 5670 5669 5669 5668 5667 5666 5665 5663 5662 5661 5660 5658 5657 5655 5653 5651 5649 5647 5645 5644 5642 5641 5640 5639 5638 5637 5636 5634 5633 5631 5630 5629 5627 5626 5625 5624 5622
5659 5660 5660 5661 5661 5660 5660 5659 5659 5658 5658 5657 5656 5655 5654 5653 5652 5650 5649 5647 5645 5643 5641 5639 5637 5636 5634 5633 5631 5630 5629 5628 5627 5626 5625 5623 5622 5621 5619 5618 5616 5615 5614 5612
5649 5650 5650 5650 5650 5650 5650 5650 5649 5649 5648 5647 5646 5645 5644 5643 5642 5640 5639 5637 5636 5634 5632 5630 5628 5626 5625 5624 5622 5621 5620 5619 5618 5617 5615 5614 5612 5611 5609 5608 5607 5605 5604 5603
5639 5640 5640 5640 5640 5639 5639 5639 5639 5639 5638 5637 5636 5636 5635 5633 5632 5631 5629 5628 5626 5625 5623 5621 5619 5618 5616 5615 5614 5612 5611 5610 5609 5607 5606 5604 5603 5601 5600 5598 5597 5595 5594 5593
5630 5630 5630 5630 5630 5630 5630 5630 5629 5629 5629 5628 5627 5627 5626 5624 5623 5621 5620 5619 5617 5616 5614 5613 5611 5609 5608 5607 5606 5604 5603 5601 5600 5598 5597 5595 5594 5592 5590 5588 5587 5585 5584 5583
5621 5620 5620 5621 5621 5621 5621 5621 5620 5620 5620 5619 5619 5618 5617 5615 5614 5612 5611 5610 5609 5607 5606 5604 5603 5601 5600 5599 5597 5596 5594 5593 5591 5589 5588 5586 5585 5583 5581 5579 5577 5576 5574 5573
5612 5612 5612 5612 5612 5613 5613 5612 5612 5612 5611 5611 5610 5609 5608 5607 5606 5604 5603 5602 5600 5599 5598 5596 5594 5593 5592 5590 5589 5588 5586 5585 5583 5581 5579 5578 5576 5574 5572 5570 5568 5567 5565 5564
5603 5603 5603 5604 5604 5605 5605 5604 5604 5604 5603 5603 5602 5601 5600 5599 5597 5596 5595 5594 5592 5590 5589 5588 5586 5585 5584 5582 5581 5579 5578 5576 5575 5573 5571 5569 5567 5566 5564 5562 5560 5559 5557 5555
5595 5595 5595 5596 5596 5596 5597 5597 5596 5596 5595 5595 5594 5593 5592 5590 5589 5588 5586 5585 5583 5582 5581 5579 5578 5577 5575 5574 5573 5571 5570 5568 5566 5565 5563 5561 5559 5557 5556 5554 5552 5550 5548 5547
5587 5588 5588 5588 5588 5589 5589 5589 5589 5588 5587 5587 5586 5585 5584 5582 5581 5580 5578 5577 5575 5574 5572 5571 5570 5568 5567 5566 5565 5563 5561 5560 5558 5556 5555 5553 5551 5549 5547 5545 5544 5542 5540 5538
5580 5580 5581 5581 5581 5581 5581 5581 5581 5580 5580 5579 5578 5577 5575 5574 5573 5571 5570 5569 5567 5566 5564 5563 5562 5560 5559 5558 5556 5555 5553 5551 5549 5548 5546 5545 5543 5541 5539 5537 5535 5533 5531 5529
5573 5573 5573 5573 5573 5573 5573 5573 5573 5572 5572 5571 5570 5568 5567 5566 5565 5564 5563 5561 5560 5558 5557 5556 5554 5553 5551 5550 5548 5546 5545 5543 5541 5539 5538 5536 5534 5532 5530 5528 5526 5524 5522 5521